User: anonymous   Login
Location: Fremont
(37.5480°N, 121.9880°W)
Time: 00:22:11
(UTC-07:00)
Language:

Cosmos 1844 Rocket - Orbit

View from above orbital plane
View from above orbital plane
View from above satellite
View from above satellite

Ground track
Ground track

The orbit data is extracted from the following two-line orbital elements,

1 17974U 87041B   16211.64959238 -.00000188  00000-0 -69529-4 0  9999
2 17974  71.0051 229.3846 0013633 175.4028 322.9087 14.17206013510980
Epoch (UTC): 29 July 2016 15:35:24
Eccentricity: 0.0013633
inclination: 71.0051°
perigee height: 825 km
apogee height: 844 km
right ascension of ascending node: 229.3846°
argument of perigee: 175.4028°
revolutions per day: 14.17206013
mean anomaly at epoch: 322.9087°
orbit number at epoch: 51098

The dashed part of the orbit path shows where the satellite is in the earth's shadow,  

DLR